• Join FlightAware (Why Join?)
  • Login
  • US Flag 
06:51AM EDT


 

Airport Tracker/Info


-or-


 

Live Flight TrackerFlight Track Log ✈ N59CW ✈ 27-Sep-2013 ✈ KPIE - KPIE

Flight Track Log - Related Links

Times and Time Zones

All times are in EDT time to prevent confusion due to time zone crossing. See the N59CW flight status page for this flight to view local times or setup timezone preferences in your user account.

Time Position Orientation Groundspeed Altitude Reporting Facility
EDT Latitude Longitude Course Direction KTS MPH feet Rate Location/Type
12:39PM 27.7667 -82.6333 330° Northwest 60 69 200  Level Tampa TRACON
12:41PM 27.9167 -82.7333 330° Northwest 98 113 1,500 420 Climbing Tampa TRACON
12:42PM 27.9167 -82.7667 270° West 110 127 1,600 360 Climbing Tampa TRACON
12:43PM 27.9000 -82.7833 221° Southwest 123 142 2,200 540 Climbing Tampa TRACON
12:44PM 27.8667 -82.7833 180° South 104 120 2,800 420 Climbing Tampa TRACON
12:45PM 27.8333 -82.7833 180° South 123 142 3,100  Climbing Tampa TRACON
12:46PM 27.8000 -82.7833 180° South 123 142 2,900 -420 Descending Tampa TRACON
12:47PM 27.7667 -82.7833 180° South 122 140 2,300 -420 Descending Tampa TRACON
12:48PM 27.7333 -82.7833 180° South 107 123 2,100 -120 Descending Tampa TRACON
12:49PM 27.7167 -82.7667 138° Southeast 97 112 2,100 -60 Level Tampa TRACON
12:50PM 27.7167 -82.7333 90° East 93 107 2,000 -120 Descending Tampa TRACON
12:51PM 27.7167 -82.7000 90° East 104 120 1,900 -60 Descending Tampa TRACON
12:52PM 27.7167 -82.6833 90° East 89 102 1,900  Level Tampa TRACON
12:53PM 27.7333 -82.6667 42° Northeast 83 96 1,900  Level Tampa TRACON
12:54PM 27.7667 -82.6667 360° North 87 100 1,900 60 Level Tampa TRACON
12:55PM 27.7833 -82.6667 360° North 90 104 2,100 -180 Climbing Tampa TRACON
12:56PM 27.8000 -82.6667 360° North 90 104 1,600 -420 Descending Tampa TRACON
12:57PM 27.8333 -82.6833 336° Northwest 76 87 1,300 -360 Descending Tampa TRACON
12:58PM 27.8500 -82.6833 360° North 81 93 900 -420 Descending Tampa TRACON
12:59PM 27.8667 -82.6833 360° North 84 97 600 -300 Descending Tampa TRACON
01:00PM 27.9000 -82.6833 360° North 83 96 300 180 Descending Tampa TRACON
01:01PM 27.9167 -82.7000 319° Northwest 123 142 1,000 840 Climbing Tampa TRACON
01:02PM 27.9000 -82.7333 241° Southwest 108 124 1,900 780 Climbing Tampa TRACON
01:03PM 27.9000 -82.7667 270° West 98 113 2,600 480 Climbing Tampa TRACON
01:04PM 27.9000 -82.8000 270° West 102 117 2,900 180 Climbing Tampa TRACON
01:05PM 27.9000 -82.8333 270° West 114 131 3,000 60 Climbing Tampa TRACON
01:06PM 27.8833 -82.8667 241° Southwest 122 140 3,100  Climbing Tampa TRACON
01:07PM 27.9000 -82.8833 319° Northwest 82 94 3,100  Level Tampa TRACON
01:08PM 27.9167 -82.8500 60° Northeast 102 117 3,100 -60 Level Tampa TRACON
01:09PM 27.9000 -82.8167 119° Southeast 124 143 3,000  Descending Tampa TRACON
01:10PM 27.8833 -82.8333 221° Southwest 120 138 3,100 -60 Climbing Tampa TRACON
01:11PM 27.8667 -82.8500 221° Southwest 123 142 2,900 -120 Descending Tampa TRACON
01:12PM 27.8333 -82.8667 204° Southwest 111 128 2,900  Level Tampa TRACON
01:13PM 27.8000 -82.9000 221° Southwest 115 132 2,900  Level Tampa TRACON
01:14PM 27.7833 -82.9000 180° South 111 128 3,000  Climbing Tampa TRACON
01:15PM 27.7500 -82.9000 180° South 114 131 3,000 -60 Level Tampa TRACON
01:16PM 27.7333 -82.8833 138° Southeast 102 117 2,900 -300 Descending Tampa TRACON
01:17PM 27.7167 -82.8500 119° Southeast 99 114 2,400 -540 Descending Tampa TRACON